Theta_e
280 280 279 279 278 278 277 277 277 277 276 276 276 276 276 277 277 277 277 276 276 276 275 276 276 275 275 275 275 276 275 276 276 276 276 275 276 276 276 276 276 276 276 276 277 277 276 276 276 276 277 276 276 276 277 278 278 279 279 279 278 280 280 279 279 279 283 286 288 289 292 293 293 295 294 295 296 298 298 300 302 303 304 306 309
280 279 279 278 278 277 277 277 276 276 276 276 275 276 276 276 276 276 275 275 275 275 275 275 275 275 275 274 275 275 275 275 275 274 274 274 274 274 274 274 274 274 274 274 274 275 276 275 275 275 275 275 275 274 275 275 276 277 277 277 277 278 279 278 277 277 277 282 285 288 290 294 291 295 294 295 295 296 298 299 303 304 304 304 304
279 279 278 278 277 277 277 276 276 276 275 276 275 276 276 276 276 275 275 275 275 275 275 275 274 274 274 274 274 273 273 273 273 273 272 272 272 272 272 272 272 271 271 272 272 273 273 273 273 273 274 273 273 273 274 274 275 275 276 277 276 277 277 277 276 274 275 278 281 283 285 289 292 293 295 296 296 299 299 300 302 304 304 304 304
279 278 278 277 277 276 276 276 275 275 275 276 275 276 275 275 275 275 274 275 274 274 274 274 274 273 273 272 272 272 272 272 271 271 270 270 270 270 270 270 270 270 270 270 270 271 271 270 270 271 272 271 272 272 272 273 274 275 275 276 275 275 276 276 276 275 275 276 279 280 284 286 289 293 294 296 297 298 300 301 302 301 303 303 304
278 278 277 276 276 276 276 276 275 275 275 276 275 275 275 275 275 274 274 273 273 273 273 273 272 271 271 271 271 270 270 270 270 269 269 269 269 269 269 269 269 269 269 269 270 269 269 269 269 270 271 270 270 271 272 272 273 274 274 274 274 275 275 275 275 276 277 277 279 282 284 287 290 291 293 293 294 297 299 300 300 301 301 302 303
278 277 277 276 276 275 276 275 275 275 275 275 274 274 274 274 274 273 273 272 271 271 271 270 270 270 270 270 270 269 269 269 269 269 269 269 268 268 268 268 268 268 268 268 268 268 268 268 269 269 269 269 269 270 271 271 272 273 274 274 274 274 274 274 275 275 275 276 278 280 285 286 288 290 294 295 294 293 296 298 299 300 300 301 303
277 276 276 276 275 275 275 275 275 275 275 274 274 274 273 273 272 271 271 270 269 269 269 269 269 269 269 269 269 269 268 268 268 268 268 268 268 268 267 267 268 268 268 268 268 269 269 269 269 270 270 270 270 270 271 271 272 272 273 273 274 273 273 273 273 274 276 278 280 282 284 286 289 289 294 296 296 295 294 294 296 299 299 299 299
276 276 275 275 275 275 275 275 275 274 274 273 273 272 272 271 270 269 269 268 268 268 268 268 268 268 268 268 269 269 268 268 268 269 269 269 268 267 267 267 268 268 268 269 269 269 269 269 270 270 271 271 271 271 271 271 272 272 273 273 273 273 273 273 274 274 275 276 278 280 284 286 289 291 294 294 296 294 296 295 294 296 297 298 300
275 275 275 275 275 275 275 274 274 273 272 271 270 270 269 269 268 267 267 267 267 267 267 267 267 267 268 268 268 268 268 268 268 268 268 268 268 268 268 268 268 268 268 269 270 270 270 270 270 271 271 273 275 275 275 275 272 271 273 273 273 273 273 273 273 274 275 276 277 280 282 285 288 289 290 290 292 293 294 295 293 295 296 295 296
274 274 274 275 275 274 274 273 272 271 270 269 269 268 267 267 266 266 265 266 266 266 266 266 267 267 267 268 268 268 268 268 269 270 271 270 270 270 270 270 270 269 269 269 270 270 271 271 272 274 274 275 275 276 277 277 277 275 274 274 274 273 273 272 272 273 275 275 277 279 280 282 286 288 289 293 293 294 293 294 292 294 294 294 294
274 274 274 274 274 273 272 271 271 269 269 268 267 266 266 265 265 265 265 265 265 266 266 266 267 267 267 267 267 267 268 268 270 271 273 273 271 270 270 270 270 270 270 269 269 270 271 271 272 273 274 275 274 277 277 278 278 278 279 279 279 276 274 273 273 274 274 275 277 278 278 279 283 287 288 291 292 292 292 292 291 290 290 289 289
273 274 274 273 272 272 271 270 269 268 267 266 265 265 264 264 264 264 264 264 265 266 266 266 267 267 267 267 267 267 267 269 271 272 273 273 273 271 271 270 270 270 270 270 270 270 271 271 272 273 273 274 274 274 275 277 278 279 279 279 279 280 280 277 275 275 275 275 276 277 279 279 281 286 288 289 290 292 291 290 289 287 286 286 288
273 273 273 272 271 271 270 268 267 266 266 265 264 263 263 263 263 263 264 265 265 265 266 266 266 267 267 267 266 267 267 269 271 272 273 274 274 273 271 271 271 271 271 271 271 271 271 271 272 273 273 276 275 275 275 275 277 278 279 279 279 280 280 281 281 278 278 277 276 277 279 280 280 283 288 290 291 289 289 288 288 286 286 286 287
272 272 271 271 270 270 268 267 267 266 265 264 264 263 263 263 264 264 264 265 265 265 265 265 266 266 266 266 266 267 267 269 271 272 273 274 274 274 272 271 271 271 270 270 270 271 271 271 271 272 273 274 275 275 275 275 275 275 275 276 276 277 279 280 280 280 280 278 277 276 279 281 281 283 287 290 289 288 287 287 287 286 286 286 287
271 271 270 270 269 268 267 266 266 265 264 263 263 262 262 263 263 264 265 265 265 265 265 265 265 265 265 266 266 266 266 270 272 272 273 274 275 275 272 271 270 270 271 271 271 271 272 272 272 272 272 273 274 275 275 276 276 275 275 275 276 276 276 276 276 277 277 278 278 279 280 281 283 284 286 289 291 290 289 287 287 286 286 287 287
271 271 269 269 268 268 266 266 265 264 264 263 262 262 263 263 263 264 264 264 265 265 265 265 265 264 265 265 265 265 266 270 271 272 273 274 275 271 271 271 271 271 271 271 271 271 272 272 271 272 272 273 275 278 278 277 276 275 275 275 276 276 276 278 280 280 279 278 279 280 281 284 286 285 286 289 291 291 290 287 286 285 285 285 285
270 270 269 268 267 267 266 265 264 263 263 262 262 262 262 262 263 264 263 264 264 264 264 264 265 265 264 265 265 265 266 268 271 272 273 274 273 271 271 271 271 271 271 271 272 271 272 272 272 272 272 272 275 278 279 279 276 276 276 275 276 276 276 278 280 281 282 282 283 284 285 286 287 289 289 290 290 292 289 287 286 287 285 284 284
270 269 268 268 267 266 266 265 263 263 262 261 261 262 262 263 263 263 263 263 263 264 264 264 264 265 264 264 265 264 265 268 271 272 273 274 274 271 271 270 270 271 271 271 272 271 272 274 274 272 272 272 276 277 278 277 275 275 276 275 275 275 276 278 278 279 281 282 283 284 284 286 287 289 290 290 291 291 289 285 286 286 284 285 284
269 268 268 267 266 265 264 263 263 262 261 261 261 260 261 262 263 263 263 263 263 264 264 264 264 264 264 264 266 266 265 267 271 272 273 274 273 272 271 271 270 270 271 271 272 272 272 273 274 274 273 274 277 278 279 278 276 276 276 276 275 275 277 278 278 277 278 279 280 283 284 286 287 288 288 290 291 291 291 288 287 285 284 284 285
269 268 267 265 264 263 262 261 261 260 260 260 261 261 262 262 262 262 262 263 263 264 263 263 263 263 264 265 265 267 267 267 268 272 273 274 275 272 272 271 270 270 271 271 270 272 272 272 273 275 276 277 277 278 279 279 276 276 276 275 275 275 278 278 279 278 279 279 280 282 283 285 287 287 287 289 290 289 290 289 287 286 285 285 285
267 266 265 263 262 262 261 260 260 260 260 260 261 261 262 262 261 261 261 262 262 262 262 262 263 264 265 266 267 267 267 267 268 272 273 274 275 275 272 272 272 271 271 271 271 270 270 270 271 274 276 276 277 278 278 279 279 276 276 276 276 278 280 279 279 280 279 279 280 281 283 284 286 287 287 288 289 289 289 289 288 287 286 285 285
265 264 263 262 261 260 260 260 259 259 259 260 260 261 262 261 261 261 262 262 261 261 261 262 263 265 266 266 267 267 269 270 269 271 273 274 275 276 273 273 273 272 271 270 270 270 270 270 270 272 275 275 276 277 277 278 279 276 276 279 280 281 279 280 280 280 280 280 280 281 282 283 284 286 287 288 288 288 289 288 288 287 287 287 286
263 262 261 260 259 259 259 259 259 259 259 260 259 260 261 260 260 260 260 260 261 261 262 263 264 264 265 267 268 268 268 269 271 270 273 274 275 276 277 275 277 273 271 269 269 269 270 270 270 273 275 275 276 277 277 278 278 276 279 280 280 281 281 279 280 280 280 280 280 281 282 283 284 285 286 287 288 288 288 288 288 288 288 289 290
262 260 259 259 259 258 258 259 259 260 259 260 260 260 260 260 260 261 261 261 262 262 263 264 264 264 265 266 267 268 268 269 270 272 272 274 276 277 277 277 276 273 272 270 270 270 269 270 271 275 276 276 277 278 278 278 277 279 280 280 281 281 279 279 280 280 280 280 280 281 281 283 284 285 285 287 287 288 288 289 289 289 289 289 290
260 259 259 258 258 258 258 259 259 259 259 259 260 260 259 260 261 261 261 261 262 262 263 263 263 264 265 265 266 267 268 268 269 271 273 274 276 276 276 276 276 275 270 270 270 270 273 275 274 274 274 275 276 277 276 277 278 278 279 280 280 278 278 278 279 280 280 280 281 281 282 284 285 286 287 288 288 288 288 288 288 288 289 289 289
259 258 258 258 258 258 258 258 258 258 259 260 259 261 260 260 261 261 262 262 262 262 262 263 264 265 265 265 265 266 267 268 269 270 272 273 274 275 275 275 274 274 273 271 273 274 273 272 272 272 272 272 271 272 273 274 276 277 278 279 278 278 278 279 279 279 279 280 281 282 283 285 286 287 288 288 287 287 287 287 287 287 288 288 288
258 258 258 257 257 258 259 259 259 258 258 260 260 260 261 261 261 261 262 262 262 262 263 264 265 265 264 265 265 266 267 268 269 270 271 271 271 272 272 270 272 272 269 269 271 268 267 268 268 271 270 271 272 272 273 274 275 276 277 278 278 279 279 279 280 280 281 281 282 282 284 286 287 287 287 287 287 287 287 287 287 287 287 288 288
258 258 257 258 257 258 259 258 259 260 259 259 260 261 261 260 261 261 262 262 262 262 264 265 265 265 264 265 266 266 266 268 268 269 270 271 271 271 270 269 268 268 268 269 268 267 266 268 267 266 266 266 267 267 268 269 270 271 271 272 273 275 277 281 282 281 282 283 284 284 284 285 285 286 287 287 287 287 288 287 287 287 288 288 288
258 257 258 258 257 257 258 257 258 259 258 258 259 260 260 260 261 261 263 264 264 265 265 266 266 266 266 266 266 265 266 267 269 273 272 274 271 270 269 268 268 268 270 272 267 266 265 264 264 264 264 264 264 265 266 266 267 269 269 269 270 272 273 276 280 281 282 283 283 283 283 284 285 286 286 286 286 287 288 288 288 287 288 289 288
257 258 258 258 257 257 257 257 257 257 258 258 259 259 260 262 262 262 263 266 268 269 269 267 267 267 267 268 268 267 267 269 273 274 274 274 274 273 272 272 272 270 271 271 267 264 263 263 263 263 263 263 263 264 264 265 266 266 267 269 269 270 271 273 274 277 281 283 283 283 284 284 284 285 285 285 286 287 288 287 287 288 287 288 288
258 258 257 257 257 257 258 258 257 258 258 258 258 259 260 261 264 266 267 267 267 268 269 269 270 270 268 267 268 272 273 273 273 273 273 273 273 272 272 271 272 271 271 266 263 263 262 262 262 263 263 263 263 263 264 264 265 265 266 267 268 269 270 270 272 273 273 274 278 283 284 284 284 285 285 285 286 286 287 287 287 287 287 288 289
258 258 258 258 257 257 258 258 257 258 258 258 258 259 259 260 261 265 266 265 267 268 268 269 269 269 270 270 269 268 271 272 272 272 272 272 272 271 271 270 271 271 270 268 262 262 262 262 262 262 262 262 263 263 264 264 265 265 266 266 267 268 269 269 270 270 270 272 275 278 282 284 285 285 286 286 286 286 286 287 288 288 288 289 290
258 258 258 257 257 256 257 257 257 257 257 257 257 258 258 258 259 260 262 265 266 267 267 268 269 269 269 270 270 270 271 271 271 271 271 271 271 271 270 269 270 270 268 262 261 261 261 262 262 262 262 262 263 263 264 264 265 265 266 266 266 268 269 270 270 270 270 272 273 276 279 282 285 285 285 285 285 285 286 287 288 289 289 290 291
257 257 257 257 257 257 257 257 257 257 257 257 257 257 257 257 256 256 257 258 260 263 265 266 267 267 268 269 269 270 270 270 270 270 270 270 270 270 268 265 268 268 266 261 261 260 261 261 261 262 262 262 263 263 264 264 265 265 266 266 267 268 268 269 269 269 269 270 271 273 275 277 282 285 285 286 286 287 287 287 288 289 290 291 293
257 257 257 258 257 257 257 257 256 256 256 256 256 256 256 256 256 256 256 255 256 256 257 259 262 265 265 265 268 269 269 269 269 269 269 269 269 268 266 262 260 260 261 261 260 260 260 260 260 261 262 262 263 263 263 264 264 265 265 266 266 267 267 268 268 268 269 269 270 270 273 275 278 283 285 285 286 286 287 288 289 290 291 293 294
257 257 256 256 256 257 256 255 256 256 256 255 256 256 256 256 255 255 255 255 255 255 256 258 257 260 265 266 267 268 268 268 268 268 268 269 268 266 260 259 259 259 259 260 260 260 260 260 260 261 262 262 263 263 263 264 264 265 265 266 266 266 267 267 268 268 269 269 269 270 271 272 275 278 283 286 286 287 288 289 290 291 292 294 295
257 257 256 256 255 255 254 254 255 256 256 255 255 255 255 255 255 255 255 255 254 255 256 256 257 258 260 260 263 265 267 267 267 267 267 267 267 262 260 260 259 259 259 259 259 259 259 260 260 261 261 262 262 263 263 264 264 265 266 266 266 266 266 267 268 268 267 267 267 268 268 269 272 274 279 284 287 288 289 290 290 290 291 292 292
257 256 255 254 254 253 254 254 255 255 254 254 254 254 254 254 254 254 254 254 255 255 254 255 256 255 256 257 261 260 261 263 264 263 263 263 260 259 259 259 259 259 258 259 259 259 259 260 260 260 261 262 262 263 263 264 265 265 265 266 266 267 269 268 268 267 267 266 266 267 267 268 270 272 276 283 288 289 290 290 291 291 291 291 293
256 257 257 257 256 254 254 253 253 253 253 253 253 253 253 253 253 253 253 253 253 253 254 254 254 255 255 255 255 260 259 257 256 256 257 258 258 259 259 259 259 258 258 259 259 259 259 259 260 260 261 262 263 263 263 264 265 265 265 266 266 267 267 266 266 266 265 265 265 266 266 267 268 270 273 279 287 290 290 290 290 290 290 291 294
256 256 257 258 255 254 252 252 252 252 252 252 252 252 252 252 252 252 252 252 252 253 253 253 253 253 254 253 256 260 256 255 254 255 255 256 256 257 257 257 257 257 257 258 258 259 259 259 260 260 261 262 262 263 263 264 265 265 266 266 266 266 266 266 266 265 265 265 265 265 265 266 267 269 272 277 285 290 290 290 290 290 290 291 293
257 257 257 257 255 253 251 251 251 251 251 252 251 251 252 251 251 252 252 251 252 252 252 252 252 252 253 256 262 262 256 253 253 254 255 255 255 255 256 256 256 256 257 257 258 258 259 259 260 260 261 262 262 263 263 264 265 266 266 266 266 267 266 266 266 265 265 264 264 264 265 266 267 268 270 275 280 287 289 290 290 290 290 291 291
257 256 255 254 253 251 251 251 251 250 251 250 251 251 251 251 251 251 251 251 251 252 252 251 252 252 254 260 260 261 255 253 253 253 254 254 255 255 256 256 256 256 257 257 258 258 259 259 260 260 261 261 262 262 263 264 265 266 266 266 266 266 266 266 266 265 265 264 264 264 265 266 267 269 271 274 279 285 288 289 290 290 290 290 291
254 254 253 252 251 251 251 250 249 249 250 250 250 251 250 250 250 250 250 250 251 251 251 250 251 251 251 256 257 257 252 252 253 252 253 253 254 254 255 255 256 256 256 257 258 259 259 259 260 260 261 262 262 263 263 263 265 266 266 266 266 267 266 266 266 265 265 264 264 265 265 266 267 268 270 273 277 283 287 288 289 290 290 290 289
252 251 251 251 250 250 250 249 250 250 250 250 249 249 249 249 249 249 249 249 250 250 250 250 250 250 250 251 251 251 251 251 251 252 252 253 253 254 254 255 255 255 256 257 258 259 259 260 260 260 261 262 263 263 264 265 266 266 266 266 267 267 266 266 266 265 265 264 264 264 265 265 267 267 269 273 276 281 285 286 288 289 289 290 289
251 251 250 249 249 249 249 249 249 249 248 248 248 248 248 248 249 249 249 249 250 249 250 249 249 249 249 249 250 250 250 250 251 251 252 252 252 253 254 254 254 254 255 256 257 258 259 259 259 260 260 262 263 263 264 265 267 267 267 267 267 267 267 266 266 266 266 265 264 264 265 265 266 267 269 272 276 279 284 286 286 287 288 288 289
251 250 249 249 249 248 248 248 248 248 248 248 248 248 248 248 247 248 249 249 249 249 249 249 249 248 249 249 249 249 249 249 250 251 251 252 252 252 253 253 253 254 255 256 257 257 258 259 259 260 260 261 262 263 264 265 267 268 268 268 268 268 268 268 267 267 266 265 264 264 264 265 266 267 270 272 276 280 283 285 286 286 286 287 287
250 250 249 249 249 248 247 247 247 247 247 248 248 248 248 248 248 247 247 248 248 249 248 249 248 248 248 248 249 248 249 249 250 250 250 251 251 252 252 252 252 253 254 255 256 257 258 258 259 260 260 261 262 263 264 265 267 268 268 268 269 269 269 268 267 267 266 266 265 265 264 265 265 266 268 270 274 279 284 285 286 285 286 286 286
251 251 250 249 248 248 247 247 247 247 247 247 247 248 248 247 247 247 247 247 247 248 248 248 248 248 248 248 249 249 249 249 250 250 251 251 251 252 251 251 252 252 253 254 255 256 257 258 258 259 260 261 262 263 264 265 268 268 268 268 269 269 269 268 267 267 266 266 265 265 265 264 265 265 267 268 269 273 279 285 286 286 286 286 286
251 250 250 249 249 248 248 248 248 248 248 247 247 247 247 247 247 247 247 248 248 248 249 249 249 249 248 248 248 249 249 249 249 250 250 251 251 251 251 251 251 251 252 253 254 255 256 257 258 259 260 261 262 263 264 266 268 268 268 268 269 271 270 269 268 267 267 266 265 265 265 264 264 265 265 266 267 269 272 277 283 286 285 286 286
251 250 249 249 248 248 248 248 248 248 247 247 248 247 247 247 247 248 249 249 250 250 250 249 249 248 248 248 248 248 248 249 249 250 250 250 251 251 251 251 250 251 252 252 253 254 255 256 257 258 260 261 262 263 264 266 268 269 269 269 270 270 270 269 268 267 266 266 265 265 265 264 264 264 264 265 266 266 268 270 273 279 285 285 285
250 250 250 249 248 248 247 247 247 246 247 246 247 247 247 248 248 249 249 249 250 250 249 250 249 248 248 248 248 248 248 248 249 249 250 250 250 250 250 250 250 250 251 252 253 254 255 256 257 258 260 261 262 263 264 266 268 269 270 270 270 270 269 269 268 267 267 266 266 265 264 264 263 263 264 264 264 265 266 268 269 270 273 279 285
Wind_Speed
11 10 9 9 9 9 8 7 8 6 7 7 7 7 6 6 6 6 6 6 5 6 6 7 7 8 9 10 10 11 11 12 11 12 12 13 13 14 14 15 17 16 16 17 18 17 18 20 19 20 18 18 19 17 16 18 18 17 18 15 14 14 15 16 17 20 18 18 17 17 16 16 18 17 22 22 20 17 15 15 17 15 14 12 11
11 11 9 9 10 9 8 7 7 6 7 7 7 6 6 6 5 5 6 6 6 6 7 7 7 9 10 10 11 11 12 13 13 12 13 13 14 11 12 14 16 17 17 18 17 16 17 19 20 19 20 21 21 21 18 18 18 17 17 14 15 16 15 13 12 14 18 13 15 15 15 14 15 19 20 21 22 17 17 16 14 15 12 11 11
11 10 10 9 9 8 8 7 7 7 7 6 6 6 5 6 5 5 6 5 6 6 7 8 9 10 10 10 10 11 12 12 12 12 13 14 15 14 13 15 16 17 18 18 18 17 19 19 21 19 17 20 21 19 19 20 19 19 20 16 15 16 14 15 14 18 21 19 18 19 18 16 16 16 21 20 18 16 13 13 13 11 9 10 11
11 10 10 9 9 9 8 7 8 7 7 6 6 6 5 5 5 5 5 5 6 6 7 8 9 9 10 11 11 11 12 12 12 12 13 14 14 15 15 15 15 16 18 18 18 18 19 20 20 19 19 21 21 19 18 18 18 17 19 17 17 19 17 16 18 16 18 20 21 20 20 16 17 18 19 18 18 11 10 11 13 13 10 9 11
11 11 10 11 10 9 9 8 7 7 7 5 6 5 5 5 4 5 5 6 6 6 7 7 7 8 8 10 11 12 12 12 12 13 13 13 14 15 16 15 15 16 17 18 18 19 19 20 20 19 19 20 20 18 17 20 18 18 18 17 16 16 16 15 17 19 20 22 20 17 17 16 16 19 20 18 16 16 12 11 11 12 11 10 11
11 11 10 10 9 9 9 8 8 7 7 6 5 5 4 4 4 4 5 6 6 7 7 6 6 8 9 10 11 12 12 12 13 14 14 14 14 14 15 15 16 17 18 19 19 18 18 19 18 18 19 19 19 18 18 20 18 18 18 17 17 16 17 17 17 20 21 21 20 19 16 15 17 19 18 16 11 14 10 10 11 11 10 10 10
11 11 10 10 9 10 9 8 7 7 6 5 4 4 4 3 4 5 5 6 6 7 6 7 7 8 9 10 11 12 12 12 12 13 13 14 15 15 15 16 17 17 18 19 20 21 20 19 19 19 19 19 20 19 19 19 18 20 18 18 18 17 18 18 19 21 21 19 17 17 17 17 18 18 14 12 13 12 9 10 11 9 8 9 11
12 11 10 9 9 9 8 8 7 6 5 4 4 3 3 4 4 4 4 6 6 7 6 7 7 7 9 10 11 11 12 12 13 13 13 13 14 15 16 16 17 18 19 20 20 20 21 20 20 20 19 19 19 19 19 18 16 18 17 16 17 18 18 17 17 17 18 18 17 17 15 17 13 11 10 10 6 5 6 8 13 11 7 7 9
12 11 10 9 9 9 8 7 6 6 5 4 4 4 4 4 4 4 5 5 5 6 6 7 8 9 9 10 11 11 11 11 10 10 11 13 13 15 16 16 17 17 17 17 18 18 20 20 20 21 22 25 30 27 25 22 16 16 17 17 18 17 17 16 16 16 16 16 18 17 15 16 12 9 9 9 7 3 3 4 9 10 9 9 10
12 11 10 9 8 8 8 6 6 5 5 5 4 4 4 4 4 4 5 5 5 5 6 7 8 9 9 10 10 10 10 9 11 17 17 15 16 16 16 17 18 18 19 20 21 21 20 19 20 29 30 31 31 32 32 32 32 25 20 17 17 17 16 16 16 16 16 16 16 15 15 15 12 10 8 4 3 2 3 5 7 9 10 10 10
10 10 9 9 8 8 7 7 6 6 5 5 4 4 4 4 4 4 5 5 5 6 6 7 8 8 9 9 10 9 9 9 17 19 21 23 18 17 17 17 17 18 19 20 20 20 20 20 20 23 26 29 28 32 31 32 32 33 34 34 29 22 18 17 18 17 17 17 16 16 16 17 17 12 9 8 5 5 4 4 5 8 10 12 12
10 9 9 9 8 8 7 7 7 6 6 5 5 4 4 4 4 4 4 5 5 4 6 7 7 8 7 9 10 10 10 14 20 20 22 23 22 18 17 17 17 19 18 20 19 19 21 21 19 17 18 20 20 22 26 31 32 32 33 33 33 34 33 26 20 18 18 18 18 18 17 16 15 15 11 9 8 6 4 4 4 5 8 10 10
9 9 9 9 9 8 7 7 7 6 6 5 4 4 4 4 4 4 5 4 4 5 6 6 7 7 8 9 10 10 11 15 20 22 22 23 24 22 16 17 17 18 19 20 20 20 19 19 19 17 16 27 23 21 20 20 26 31 31 31 31 32 32 33 33 26 20 20 20 21 19 16 17 15 13 11 7 8 6 6 5 5 5 8 8
9 9 9 8 8 8 7 7 7 6 6 5 5 4 4 4 4 4 3 4 4 5 5 7 7 7 8 9 10 11 12 15 21 23 23 24 25 22 17 18 17 18 20 19 18 19 20 20 19 19 18 19 18 19 19 22 19 20 20 20 20 24 29 33 34 35 31 24 21 22 22 20 19 16 15 10 7 9 7 6 5 7 8 9 10
9 9 9 8 8 8 8 7 6 6 5 5 5 4 4 3 4 4 3 3 4 4 5 6 7 8 9 9 10 11 11 19 22 24 24 25 25 24 17 17 17 17 17 18 19 20 20 19 20 21 20 19 18 21 18 17 17 16 18 19 21 21 22 21 21 20 19 19 20 22 23 23 22 20 18 17 12 10 7 5 5 7 8 9 10
10 9 9 9 9 8 8 7 6 6 5 5 5 4 4 3 3 3 3 3 3 4 5 6 7 8 9 10 11 12 12 20 23 24 25 25 27 18 16 16 16 16 18 19 20 20 20 20 20 21 21 21 24 29 26 20 18 18 18 17 19 19 21 22 28 27 24 20 19 18 17 21 24 21 20 18 15 11 7 4 4 5 6 8 11
10 10 9 9 8 8 8 7 7 6 6 5 4 4 3 3 3 2 2 3 3 4 5 6 6 8 9 10 11 12 13 18 23 24 24 26 22 16 16 14 15 17 19 19 20 20 20 19 20 19 20 20 25 30 30 28 19 20 19 19 16 16 16 17 27 33 33 34 35 36 37 37 36 34 34 35 23 12 9 7 8 6 6 8 11
10 10 9 9 8 8 7 7 6 6 5 5 4 3 3 2 3 2 2 2 4 4 5 6 7 7 9 11 11 13 16 19 24 24 25 26 23 18 16 16 18 19 19 18 17 18 20 31 27 22 22 22 27 30 31 25 20 20 19 20 20 19 19 18 16 20 27 30 31 33 35 35 35 37 36 35 31 19 11 12 6 4 6 6 10
11 11 10 9 8 7 6 6 6 6 5 4 4 3 3 3 2 1 1 2 4 5 5 6 7 8 9 11 16 17 15 17 22 24 25 25 22 16 16 16 16 17 17 17 17 18 20 21 28 26 24 25 32 31 32 26 20 18 17 18 19 18 18 19 17 17 16 16 17 19 20 25 22 22 23 29 28 21 13 10 5 6 8 8 8
10 9 9 9 8 7 6 6 5 5 5 4 3 3 2 2 1 0 1 2 3 4 5 6 8 9 10 11 12 13 15 16 18 25 25 26 27 19 15 16 17 17 16 17 19 17 17 20 22 27 30 31 30 31 30 30 21 19 18 17 18 20 14 16 16 15 15 16 16 16 16 15 12 12 13 15 15 13 12 10 9 9 9 9 8
10 10 9 8 8 7 6 5 5 4 4 3 3 2 2 1 1 1 1 2 3 5 6 7 8 10 10 12 12 14 14 17 19 25 26 27 28 24 16 17 17 17 17 19 18 20 20 18 17 24 29 30 30 31 32 31 29 21 19 19 18 18 20 15 18 25 17 16 17 16 15 14 12 11 12 11 10 9 9 10 9 10 9 9 9
10 9 9 8 7 6 6 5 4 4 3 3 3 3 2 1 0 1 1 2 4 5 6 7 8 10 11 12 12 13 15 19 18 23 26 28 28 30 20 17 20 19 22 20 20 19 20 20 18 23 30 31 31 31 33 32 33 22 21 28 32 32 24 18 15 15 15 14 14 15 15 14 12 10 10 10 10 9 9 10 10 10 11 11 11
10 10 9 9 7 7 6 6 5 4 3 3 3 2 2 2 1 1 1 3 3 6 8 8 9 11 11 11 11 12 14 14 21 20 25 28 28 28 30 26 31 22 20 20 20 21 20 20 20 28 31 32 33 34 34 34 29 23 31 31 31 33 28 18 15 14 15 15 15 15 14 13 13 11 10 10 10 10 10 11 11 11 11 13 14
10 10 9 8 8 6 6 5 5 4 3 3 3 3 1 1 2 2 2 2 3 6 7 8 10 11 10 11 12 12 13 14 18 23 21 27 27 29 30 31 31 22 21 19 20 20 20 20 22 35 35 34 34 34 34 33 26 31 31 32 31 30 20 17 16 15 15 15 15 15 14 12 11 11 11 9 8 9 11 11 12 13 13 13 14
10 10 9 9 8 7 6 5 5 4 3 3 3 2 1 1 2 3 2 2 3 5 6 9 9 9 10 12 12 12 13 14 15 16 25 26 27 29 30 31 31 31 21 17 17 19 25 33 34 32 31 30 32 31 27 26 29 28 29 29 27 16 16 16 16 14 15 15 15 15 14 13 12 12 12 10 8 9 9 10 10 12 12 12 12
10 10 9 8 8 8 8 6 4 3 2 2 2 2 2 2 3 2 2 2 4 5 7 8 7 9 10 11 12 13 14 13 12 14 17 19 22 27 30 29 29 30 26 20 26 29 28 29 30 28 25 23 19 17 15 15 20 23 26 26 16 15 15 15 15 15 16 16 15 15 13 11 10 9 10 9 10 11 10 10 9 10 10 11 11
11 10 9 9 8 7 8 6 5 3 2 2 2 2 2 2 3 2 0 2 4 6 7 7 8 9 10 11 13 13 13 12 13 14 14 16 15 18 20 20 25 25 18 16 19 16 19 20 19 23 20 25 23 21 20 19 15 14 12 11 11 13 14 15 14 15 16 15 14 13 11 10 8 10 10 10 11 11 9 10 10 10 10 10 10
11 10 10 8 7 7 6 7 6 4 3 3 3 3 2 3 3 1 1 2 4 6 7 8 9 9 10 11 11 12 13 12 13 14 15 17 17 17 17 17 17 16 16 16 16 16 16 17 18 14 14 13 14 12 12 12 12 12 11 11 11 12 17 22 23 13 13 13 13 12 11 10 11 11 12 12 11 11 10 10 10 9 10 9 10
9 10 8 7 7 6 6 6 4 4 4 3 2 2 2 3 3 2 4 4 5 6 7 8 8 8 8 10 11 11 12 13 13 21 20 25 21 18 17 17 18 17 19 24 17 14 13 14 14 14 14 15 14 13 13 13 13 12 13 12 11 12 12 13 11 12 12 12 14 13 13 10 12 10 11 12 11 11 10 10 10 10 10 11 13
9 8 6 7 7 7 6 5 5 4 4 3 2 2 4 5 5 3 3 6 9 11 10 7 9 9 9 8 9 12 12 14 24 28 27 28 28 28 26 26 25 21 24 25 17 12 13 13 13 14 14 14 14 14 14 14 14 14 13 14 12 10 12 12 12 14 12 11 12 11 11 11 13 13 13 13 11 10 10 11 9 10 10 12 14
7 6 6 5 7 7 6 6 5 4 4 4 2 1 2 3 3 8 9 8 9 10 10 11 13 14 11 8 10 17 20 23 25 25 27 27 28 27 27 26 26 26 26 17 12 12 13 13 14 14 14 13 13 14 14 14 14 14 14 13 11 11 11 10 11 11 12 12 13 13 12 13 15 15 14 12 11 10 10 10 11 11 12 14 13
9 7 7 7 8 6 6 6 5 5 4 3 2 2 3 2 2 7 6 4 9 9 7 11 13 14 14 14 14 10 17 22 24 24 25 26 26 27 25 25 25 26 26 21 11 12 12 13 14 14 14 14 14 14 14 13 13 13 14 14 13 12 12 11 12 11 11 11 12 12 12 12 14 13 11 11 11 11 11 10 11 12 13 13 14
10 8 7 8 7 7 6 5 4 5 4 3 3 3 4 4 3 2 6 8 3 2 6 13 17 16 16 17 19 19 20 21 24 24 24 25 26 26 25 23 23 25 25 15 13 13 13 12 13 14 14 14 15 14 14 14 14 14 13 13 14 15 13 14 15 12 10 10 11 12 12 13 12 12 13 13 13 12 11 11 12 12 12 13 13
11 8 8 9 8 7 6 6 5 5 4 3 3 4 4 3 2 2 6 9 10 7 8 15 18 20 19 19 21 21 22 22 22 23 23 23 25 24 23 16 20 21 19 13 13 12 13 13 13 14 14 14 14 14 14 14 14 14 14 13 14 14 14 14 12 12 11 11 10 11 12 12 13 12 13 12 11 11 11 12 12 11 12 13 13
7 7 8 7 7 7 6 6 6 6 5 4 4 5 4 3 1 0 1 3 4 6 8 9 14 17 14 14 19 21 22 22 22 22 22 23 23 23 18 11 15 14 14 13 13 12 13 13 14 14 14 14 15 14 14 14 14 14 14 15 14 14 14 14 13 13 11 11 11 11 12 13 14 13 12 12 13 13 12 12 11 11 12 12 12
9 8 7 7 7 7 6 6 6 6 5 5 4 5 4 3 1 1 1 2 4 5 5 5 5 9 15 17 21 20 22 22 21 21 21 22 22 21 13 13 13 14 14 15 14 13 12 12 12 13 13 13 14 14 14 14 14 14 14 14 15 16 15 14 13 13 13 12 11 12 13 13 13 14 13 12 14 13 12 11 10 10 12 12 13
9 8 7 6 7 7 7 6 6 6 6 6 5 5 4 3 2 2 1 2 3 3 4 6 7 7 9 9 17 20 22 21 20 18 19 19 21 13 10 11 11 12 12 13 13 13 13 13 13 13 13 14 14 14 14 14 14 14 15 15 15 15 13 12 14 14 13 12 11 11 12 12 13 14 14 13 10 11 11 10 9 9 10 13 13
7 8 7 8 8 8 8 7 8 9 6 6 5 5 4 3 2 2 1 1 2 2 2 3 4 3 6 8 15 10 12 16 17 15 15 16 12 11 11 11 11 11 12 12 13 12 13 13 13 13 13 13 13 14 14 14 14 14 14 14 14 12 20 17 15 13 13 12 12 11 11 12 12 13 14 14 10 10 9 8 8 8 7 13 12
7 12 17 17 11 8 7 7 7 6 5 5 5 4 4 3 3 2 2 1 1 1 1 1 2 3 4 6 7 8 10 8 9 8 9 9 8 9 9 10 10 11 11 11 12 12 12 12 14 14 13 13 14 14 14 14 14 14 15 14 13 13 15 13 14 12 12 12 13 12 12 12 12 13 13 13 11 8 7 7 7 7 5 8 11
10 10 12 16 8 8 7 7 6 6 5 6 5 4 4 3 3 2 1 1 0 0 1 2 2 2 4 5 7 7 6 7 6 7 8 9 9 9 9 9 10 11 11 11 12 12 12 13 13 14 14 14 14 15 15 14 13 14 14 13 12 11 13 13 13 14 14 13 12 12 12 12 12 13 13 12 10 6 6 6 6 5 4 6 10
10 10 10 10 10 8 6 6 5 5 5 4 5 4 3 3 2 2 1 1 0 0 1 1 2 3 4 7 14 12 5 5 7 7 8 8 9 8 9 9 9 10 11 11 11 12 12 13 14 13 13 13 14 14 15 15 16 17 16 15 14 16 18 17 16 14 13 12 12 12 12 12 12 12 12 11 13 9 5 4 4 5 4 4 5
10 11 9 9 9 7 7 6 6 5 5 5 5 4 4 3 2 1 1 1 0 0 0 1 1 2 6 13 12 13 6 4 5 7 8 7 8 8 8 8 8 9 10 10 11 11 12 13 13 13 13 14 14 14 14 15 15 16 15 15 15 16 16 15 15 13 14 13 12 13 13 13 13 12 12 12 11 9 5 4 4 4 5 4 2
9 8 8 7 7 6 7 7 6 6 5 5 4 4 4 3 2 2 1 1 0 0 0 1 2 3 4 9 12 12 4 4 5 7 7 7 7 8 8 9 9 10 9 10 10 10 11 12 13 13 13 14 14 14 14 14 13 14 16 15 13 13 14 14 15 15 13 12 13 15 15 13 12 10 9 9 10 8 4 4 3 4 5 5 3
8 7 7 7 7 6 6 6 6 5 5 6 5 5 3 3 2 1 1 1 0 0 0 1 2 4 4 6 7 5 4 5 6 6 7 7 7 8 8 9 9 10 10 10 10 10 11 11 12 13 13 13 13 14 13 14 13 14 17 16 14 17 17 16 17 16 15 16 15 15 14 13 11 10 9 8 9 10 5 2 3 4 4 5 6
8 8 8 7 7 6 5 4 6 6 6 6 4 4 3 2 2 2 1 1 0 0 0 1 2 2 4 4 5 5 5 5 6 6 7 7 8 8 9 9 10 10 10 11 11 12 11 12 12 13 14 13 14 14 14 13 15 16 16 14 13 14 17 19 17 15 16 16 16 15 14 13 12 10 9 9 9 9 8 2 2 3 4 5 6
7 7 7 7 7 6 6 5 5 5 5 5 5 4 3 2 2 2 1 1 0 0 0 1 1 1 2 3 4 4 5 6 6 6 6 6 7 8 8 9 10 10 9 10 11 12 11 12 12 13 14 14 15 14 13 14 15 18 19 17 15 13 14 15 17 16 15 15 15 14 14 13 13 11 13 11 9 8 8 3 1 3 4 5 5
7 6 6 6 7 6 6 6 6 5 5 4 3 4 3 3 3 2 2 1 1 0 0 0 1 1 2 2 4 5 5 5 6 6 6 7 7 8 8 9 9 9 10 10 10 11 12 12 12 13 13 14 15 16 14 13 12 14 17 15 16 18 16 16 16 16 16 14 14 12 12 13 13 13 14 12 10 10 7 4 2 3 4 5 6
7 6 5 6 7 7 6 6 6 5 4 4 4 3 3 3 2 2 2 2 1 0 0 0 0 1 1 2 3 4 5 5 6 5 6 7 7 8 8 8 8 9 10 10 10 11 11 12 13 13 14 14 15 15 13 12 13 18 15 16 19 23 27 27 16 17 17 16 15 14 14 13 12 12 12 12 11 10 9 3 1 1 2 4 5
6 7 6 6 6 6 7 6 5 5 4 4 4 4 3 2 2 2 2 1 1 1 0 0 0 1 1 2 4 4 5 5 5 5 6 6 7 7 8 8 9 9 9 9 10 11 12 12 12 12 12 12 13 14 15 13 15 17 19 18 27 44 41 38 24 22 26 17 17 16 13 12 13 13 13 12 12 10 9 9 6 1 3 3 5
6 6 6 6 6 5 4 4 5 4 4 3 4 3 3 2 2 1 2 1 1 0 0 0 0 1 2 3 4 5 5 5 5 6 6 6 7 7 7 8 8 9 9 9 10 10 10 11 11 11 12 12 13 13 14 13 15 20 19 23 39 42 41 40 32 40 30 17 16 16 18 14 13 12 11 11 12 12 11 9 9 8 3 3 5
6 6 6 6 6 5 5 5 5 4 4 4 3 3 3 3 2 2 1 2 1 1 0 1 1 2 3 3 4 5 6 6 6 6 6 7 7 7 8 8 8 8 9 9 9 9 10 11 11 11 12 13 13 13 14 13 15 20 25 35 39 40 46 40 29 33 40 28 15 16 15 16 15 15 14 14 13 13 13 12 10 8 7 6 1
Wind_Direction
157 157 156 164 165 171 174 176 185 193 204 217 229 238 243 247 253 260 273 270 276 280 277 279 285 284 291 290 286 284 281 280 280 279 276 274 273 274 274 271 271 270 270 270 266 264 263 258 255 257 257 259 260 258 257 258 256 255 254 254 260 263 265 268 272 273 270 261 268 272 277 279 270 260 266 266 264 264 259 257 259 263 259 256 262
162 155 158 164 171 174 175 177 184 194 205 216 228 233 242 247 252 264 264 272 275 276 277 281 280 290 291 283 284 282 280 281 281 279 277 278 278 276 275 274 273 272 272 271 271 269 264 263 262 263 263 258 258 260 259 258 257 255 252 253 254 255 256 271 283 287 289 293 284 285 284 278 275 270 262 261 263 258 259 259 258 255 253 258 256
157 156 160 166 172 172 175 181 186 196 207 218 225 230 240 248 251 258 266 273 278 275 282 285 290 291 283 284 285 283 281 280 280 278 278 279 280 278 275 275 275 275 274 273 274 274 270 268 270 270 265 263 260 259 259 259 257 257 257 251 253 258 262 263 273 279 281 281 281 280 277 277 270 270 265 260 260 263 266 273 262 252 248 253 255
155 156 160 166 168 171 179 182 188 198 207 216 221 230 239 247 254 256 267 277 277 284 284 289 293 293 292 289 286 282 280 279 279 279 278 279 279 279 278 277 275 274 274 275 276 275 272 273 273 271 267 265 263 263 262 260 258 255 253 254 257 264 271 279 279 277 279 279 271 266 269 272 272 270 270 272 268 259 251 257 269 266 257 250 249
155 159 164 164 171 176 180 183 190 197 206 212 222 232 241 244 249 264 268 271 278 284 285 286 288 287 288 290 292 287 284 281 280 280 279 277 278 278 278 278 274 273 273 272 273 273 272 271 272 272 269 267 266 263 263 260 258 258 258 256 254 256 260 259 262 264 263 258 262 265 267 267 268 269 262 262 265 260 248 250 259 263 258 251 248
157 158 162 166 171 179 180 184 191 196 201 212 220 225 232 246 253 263 271 275 282 279 280 284 286 289 287 289 288 287 287 283 283 285 285 285 280 281 277 273 272 269 268 267 265 262 263 264 267 267 268 267 266 265 264 265 264 260 256 254 254 256 258 259 261 263 262 261 261 265 266 269 268 259 252 247 245 259 266 263 258 249 254 260 252
157 159 163 169 172 178 180 184 185 188 194 201 205 216 229 243 254 261 268 272 272 274 277 282 283 285 284 289 290 289 289 288 287 285 284 282 284 281 276 272 267 266 262 261 261 258 255 254 254 255 258 259 260 262 263 262 260 260 261 261 259 257 257 259 260 262 264 270 271 268 269 265 261 258 242 236 237 248 270 282 271 256 236 246 256
155 159 163 172 176 176 178 178 179 183 184 186 200 217 229 237 247 253 259 265 267 273 279 282 285 285 287 290 295 293 290 292 291 292 293 290 283 279 273 270 268 266 265 262 259 256 252 248 249 249 249 254 255 256 256 259 258 258 256 256 257 256 256 258 262 264 265 263 261 264 264 266 261 248 245 236 237 259 256 278 275 270 257 245 250
155 159 168 173 175 170 167 170 173 172 177 182 196 204 218 236 243 253 256 261 267 270 278 282 283 285 287 289 294 297 293 292 295 297 293 288 283 279 277 272 269 268 268 267 266 265 262 255 251 248 244 249 254 253 253 252 252 254 254 253 255 255 256 259 261 265 271 276 273 270 273 275 263 258 254 256 251 259 344 309 293 293 286 279 266
156 162 169 172 164 163 163 161 165 164 170 183 188 200 217 231 239 247 254 260 269 275 278 281 282 284 289 294 297 298 295 290 282 282 285 289 291 290 289 287 286 285 284 284 282 279 277 274 267 256 246 246 251 255 256 257 256 254 255 251 249 251 250 253 259 261 267 274 278 282 282 280 286 281 271 275 331 327 336 338 317 312 303 283 275
156 163 166 162 159 158 162 164 164 169 171 178 186 199 220 225 239 247 252 257 263 270 271 276 280 284 289 294 296 290 285 282 287 289 293 295 296 293 291 288 286 284 284 284 283 284 281 277 275 275 267 255 252 255 258 258 258 258 257 257 256 253 254 251 251 255 259 262 270 277 277 280 282 279 279 287 302 317 318 346 327 322 312 309 306
153 160 158 156 159 161 162 160 165 171 171 183 188 197 214 228 237 245 251 258 264 265 270 271 280 289 290 295 294 292 289 288 296 296 298 298 297 296 293 292 290 287 284 283 282 282 282 280 276 273 270 266 256 253 250 252 255 258 261 261 260 259 256 254 257 256 254 258 260 260 267 268 276 284 285 286 286 292 307 329 323 310 308 307 305
150 156 156 159 161 162 160 164 169 173 179 178 183 197 212 227 234 238 243 252 258 257 268 281 284 293 295 299 297 293 291 291 301 303 303 302 302 301 294 290 287 287 288 287 286 285 283 281 281 275 272 272 265 265 261 254 252 252 258 258 259 259 258 257 254 256 261 261 261 262 260 265 269 274 284 281 291 291 313 309 308 295 274 287 287
152 154 155 161 162 162 165 165 173 173 173 177 188 203 208 221 232 241 241 244 248 263 268 275 282 291 298 299 298 297 293 294 304 306 307 306 305 304 297 295 292 290 288 286 284 282 280 280 279 277 275 274 270 264 262 258 256 260 258 261 260 260 260 259 261 261 260 261 261 260 262 263 262 266 276 290 299 293 298 298 302 294 289 279 284
153 156 158 162 162 165 166 170 172 170 172 179 191 201 207 220 232 234 230 237 248 266 276 281 288 289 292 294 296 296 292 301 306 306 307 306 305 307 299 293 286 280 280 281 281 281 281 281 281 281 281 279 276 275 268 259 253 252 250 252 252 253 254 255 258 258 257 257 260 258 257 258 260 258 264 270 273 279 280 266 267 271 280 283 276
153 156 160 166 168 169 168 170 170 169 171 180 187 199 203 216 229 238 240 249 260 268 276 283 288 289 289 294 296 295 293 301 306 306 304 304 306 305 298 291 286 286 285 287 284 281 279 277 277 276 275 274 273 274 275 274 268 259 253 248 245 243 246 248 257 258 257 257 260 265 268 263 254 251 255 259 267 271 271 242 244 261 273 284 286
158 162 164 166 170 168 170 168 166 168 172 178 182 195 200 218 229 226 243 265 278 278 281 285 288 294 295 292 294 292 292 298 301 304 305 307 308 302 299 292 289 290 290 290 289 285 281 278 277 278 278 276 275 274 274 273 270 266 259 256 248 248 249 252 259 262 261 260 260 260 260 261 259 252 248 250 253 252 258 255 258 271 284 293 294
159 160 165 166 167 164 166 163 163 168 170 173 176 193 201 224 220 228 250 288 289 286 291 290 287 291 295 292 287 293 296 295 297 302 303 303 305 305 302 298 293 292 288 282 281 281 279 279 276 276 277 276 277 276 275 274 272 272 270 265 263 260 256 256 260 263 262 263 261 261 262 262 259 251 245 244 245 242 242 250 255 267 266 272 285
161 162 162 156 158 153 154 161 162 164 165 163 177 197 203 207 226 230 265 283 283 288 294 295 294 294 287 282 286 292 289 293 299 302 301 303 308 306 301 293 287 288 290 291 288 287 283 283 280 276 275 275 276 275 272 269 265 264 266 270 269 260 258 259 255 259 260 260 257 254 253 252 250 242 239 240 242 242 240 243 226 239 264 264 269
148 142 140 144 146 147 153 157 159 157 151 158 187 203 193 209 207 343 314 285 297 302 304 301 297 289 289 288 290 288 294 296 297 298 300 303 306 306 305 303 297 289 289 291 294 290 292 293 289 285 282 279 279 278 277 276 276 277 278 276 274 274 274 262 253 252 257 261 268 275 274 271 260 246 234 235 233 229 231 224 218 223 235 251 256
132 135 137 138 140 145 145 156 158 150 151 169 185 188 182 197 198 24 295 306 306 304 301 292 296 303 301 299 295 294 292 294 295 297 301 305 307 308 305 304 302 300 301 302 299 301 300 296 295 292 288 286 284 282 279 275 271 270 268 269 268 272 274 268 263 257 253 256 261 264 267 265 258 249 244 234 226 221 222 219 211 211 220 234 246
127 130 138 135 134 138 142 148 156 145 159 175 181 166 157 177 137 80 352 330 315 298 302 311 314 307 303 301 295 293 294 295 300 301 302 304 304 305 304 303 308 309 307 303 301 298 297 299 297 293 290 288 286 285 282 279 276 273 270 269 272 274 275 274 270 260 252 251 251 254 257 258 257 248 234 231 228 220 215 217 214 217 220 223 229
128 131 129 129 134 142 145 153 149 142 167 181 163 152 167 162 150 110 34 341 319 320 326 324 319 313 306 304 301 298 298 297 299 301 302 306 309 311 312 312 312 313 307 301 301 300 300 298 296 296 295 292 287 282 278 275 275 270 269 269 270 271 273 274 271 263 254 249 249 250 249 251 251 247 241 237 226 220 223 219 220 224 224 232 230
131 128 130 135 138 144 151 151 136 142 168 173 151 142 132 143 119 83 34 354 336 330 331 325 319 310 308 309 308 306 305 304 300 298 302 312 314 315 316 315 314 314 309 304 302 300 302 301 302 305 305 303 299 292 285 278 271 269 268 269 270 271 273 272 270 270 264 253 250 248 247 245 241 244 244 240 232 225 227 223 226 228 229 236 237
135 134 138 142 144 148 151 142 133 143 169 169 150 149 159 124 98 65 45 352 327 323 318 319 306 305 311 311 309 308 309 304 300 302 313 313 316 319 318 318 317 317 313 306 304 303 306 310 312 312 311 310 308 301 291 285 281 279 278 277 278 275 273 271 268 265 260 254 248 249 248 244 242 246 248 244 237 237 230 232 228 232 236 241 247
134 137 139 141 145 150 137 125 128 145 174 153 132 137 140 118 83 62 31 329 315 311 311 299 296 313 310 309 310 310 310 306 305 313 312 316 322 321 322 321 320 318 316 310 310 315 319 318 317 317 317 317 320 319 300 282 279 279 277 276 273 266 263 262 262 259 255 255 250 249 248 240 235 238 240 235 236 233 230 233 233 238 238 244 251
130 138 139 139 146 150 137 138 142 153 164 148 138 146 160 122 95 81 290 295 304 304 297 304 317 316 311 311 311 312 312 311 318 319 317 325 325 326 328 326 323 323 320 318 323 328 323 321 320 322 323 324 326 330 337 335 322 309 304 299 292 284 264 253 251 253 259 252 250 247 246 243 238 238 233 231 233 235 230 233 235 240 238 242 247
140 145 144 144 147 146 131 132 142 146 149 153 149 159 160 140 116 154 230 286 292 300 309 317 318 316 313 311 312 317 316 317 323 322 329 332 331 332 331 329 329 328 326 326 336 330 324 322 327 327 327 331 334 337 336 331 323 320 315 314 309 309 306 279 252 245 247 251 254 251 247 245 242 239 240 236 238 236 229 227 227 237 236 241 245
124 134 141 139 133 131 127 142 149 141 144 135 146 173 183 151 141 206 240 235 260 289 304 310 314 312 313 312 317 316 319 324 326 331 333 334 336 337 336 334 333 335 334 338 338 330 332 335 334 334 338 339 341 339 337 330 326 320 316 318 318 320 317 332 304 254 242 245 249 248 252 247 246 241 240 240 238 236 228 229 226 232 238 233 241
133 142 151 140 132 133 132 137 142 144 134 125 137 173 198 193 203 219 261 287 306 314 314 313 318 320 314 313 322 321 321 325 331 335 337 338 340 342 341 339 339 344 347 345 337 338 343 338 338 336 336 340 341 340 334 330 326 325 323 322 322 321 326 324 327 325 307 273 249 246 248 247 252 248 244 243 240 235 229 225 228 226 233 235 239
135 144 149 146 146 136 137 137 144 139 135 137 151 135 63 24 257 240 246 279 307 313 325 329 331 329 329 325 328 328 328 335 338 340 341 341 343 345 347 345 348 354 357 351 345 349 342 341 340 338 337 335 336 334 330 326 325 324 322 324 321 322 320 316 319 319 317 316 301 271 243 242 246 246 246 240 238 237 237 229 227 225 230 235 236
147 156 149 142 138 133 129 128 134 132 127 129 143 132 106 113 172 203 201 323 316 314 326 338 343 347 344 346 344 331 342 344 344 345 345 344 346 348 351 350 356 359 360 1 0 351 345 342 339 338 335 332 330 328 327 326 324 323 322 322 324 325 321 315 313 311 307 300 296 298 280 255 244 246 242 241 237 239 235 231 223 226 229 232 233
137 142 143 140 133 129 129 130 127 122 119 112 103 78 67 37 8 347 206 218 290 293 343 356 356 356 354 355 354 349 349 348 349 348 347 346 347 349 349 348 355 360 358 360 1 353 346 338 336 334 335 332 325 324 325 326 324 323 320 319 319 320 315 310 311 305 298 295 296 293 293 284 261 246 243 239 235 232 231 231 231 231 233 234 230
136 146 151 148 138 136 131 130 127 119 113 109 107 95 84 87 65 330 336 338 342 339 352 1 0 356 354 355 353 352 354 353 350 349 348 348 349 348 348 345 350 358 7 3 356 347 344 340 336 333 331 327 324 320 319 321 323 320 317 315 311 310 312 313 312 308 306 304 298 293 290 288 282 262 245 237 231 232 231 233 230 231 234 231 221
120 104 116 127 125 128 127 127 125 119 121 121 115 105 106 106 115 41 345 326 315 314 312 328 342 354 354 355 353 354 355 353 350 348 348 348 352 349 345 348 356 352 358 3 354 347 342 342 336 330 326 325 323 321 317 317 319 320 319 314 310 312 314 315 314 311 306 304 301 299 297 295 292 282 259 246 242 238 234 231 227 226 231 221 208
130 137 137 121 116 118 120 126 126 123 128 123 115 110 113 133 149 169 228 254 270 290 294 318 313 315 352 359 358 354 353 350 348 348 349 351 354 355 359 357 352 353 352 354 350 342 337 333 330 327 323 320 320 318 317 315 314 313 313 314 314 313 309 310 312 315 311 301 295 295 296 294 292 290 278 253 240 237 236 230 225 229 225 212 198
135 140 141 136 123 119 122 121 121 125 123 118 120 118 127 142 159 178 210 235 257 266 300 317 331 335 352 354 354 346 345 346 345 346 351 352 353 357 357 351 344 340 344 342 341 337 334 332 330 323 322 320 318 317 314 311 309 311 311 311 308 308 308 308 314 313 309 304 297 295 294 292 294 293 290 271 241 235 229 226 224 233 228 202 190
134 138 138 134 123 125 127 128 127 123 118 119 114 119 131 141 159 177 205 251 267 289 319 333 344 347 343 329 337 332 331 335 340 350 353 353 354 354 350 343 341 340 337 334 335 332 328 324 328 324 318 315 315 315 312 309 308 307 309 303 302 304 319 319 311 309 307 303 301 300 300 298 299 300 298 286 247 226 221 216 217 230 237 196 183
111 129 135 137 134 133 132 126 128 125 117 116 119 129 137 141 148 173 189 217 238 298 298 324 343 339 329 322 310 322 346 347 348 333 327 326 333 339 340 340 338 335 330 326 324 328 327 323 325 324 318 319 317 315 313 308 307 309 306 303 306 312 325 327 323 317 318 316 311 306 303 301 301 299 293 293 265 223 215 210 206 214 216 203 184
133 135 137 136 124 125 120 120 123 120 125 129 130 131 131 142 160 169 187 186 214 321 340 351 331 333 325 311 302 346 356 331 318 319 316 322 325 331 337 337 334 332 328 323 324 326 324 324 324 322 320 319 321 317 314 307 304 310 312 309 307 313 324 330 329 327 323 317 314 309 305 300 296 294 294 297 288 232 214 204 197 188 204 223 192
135 136 138 138 134 126 114 113 114 123 129 122 126 127 130 140 152 165 158 133 156 329 339 307 298 311 304 312 337 354 348 313 311 311 311 312 319 323 331 330 331 326 324 322 322 319 319 321 323 320 319 318 318 320 316 315 322 322 317 318 325 332 333 334 332 328 323 319 314 310 304 298 294 293 297 302 309 293 232 199 182 177 185 222 238
134 138 135 136 134 126 123 115 120 123 120 119 120 123 133 142 151 154 128 129 122 337 318 301 304 312 316 337 347 352 353 304 310 309 309 312 317 323 321 320 320 321 320 318 319 319 317 319 320 321 317 316 317 315 318 312 319 326 320 317 319 325 332 335 334 332 331 324 315 309 304 300 294 289 286 291 297 300 267 222 189 182 170 179 179
125 124 127 130 134 130 125 128 132 134 126 122 117 122 124 134 142 135 135 139 124 33 336 323 321 321 325 344 348 351 336 318 308 307 307 314 315 317 319 320 320 318 312 312 311 314 315 314 318 316 313 311 313 314 315 310 307 323 327 318 318 330 334 335 334 332 327 322 318 311 307 302 297 291 292 296 303 306 286 254 209 180 177 162 131
118 118 120 117 112 102 109 125 133 121 117 116 118 123 130 137 131 135 135 132 136 52 16 334 329 334 326 340 348 348 340 328 317 313 313 315 316 317 317 317 317 316 317 314 316 317 316 317 320 314 312 312 313 311 310 311 317 322 327 323 326 339 341 338 336 334 332 329 320 318 312 306 300 296 295 304 313 315 305 258 235 189 167 169 145
126 127 125 122 122 121 124 118 115 116 114 120 122 124 134 144 138 143 138 131 133 50 355 344 343 335 333 337 342 335 324 317 314 308 312 316 317 314 315 315 318 318 314 317 317 318 319 320 315 317 315 315 317 317 316 317 334 346 343 334 331 337 348 346 340 332 328 322 321 317 311 311 311 312 313 315 316 316 310 253 217 183 165 155 158
129 127 122 121 124 126 125 123 119 119 130 136 134 135 140 137 142 140 133 138 132 101 40 350 338 333 328 324 321 319 315 309 304 307 309 314 317 314 312 314 314 311 310 315 315 317 318 321 322 317 316 314 316 314 317 312 329 343 345 344 345 344 342 339 337 330 326 324 322 316 317 318 323 324 328 324 312 302 296 282 168 176 159 145 158
129 121 122 126 132 127 119 120 123 129 131 128 129 131 138 146 145 141 143 141 146 148 38 339 340 336 331 318 313 310 307 306 305 310 308 304 302 304 310 313 313 313 317 314 317 320 321 318 317 317 316 319 315 315 314 318 326 344 348 346 347 352 353 347 342 342 338 328 324 318 324 330 332 332 333 330 323 316 298 248 189 159 149 142 132
129 123 121 120 119 119 123 126 125 125 125 132 135 133 136 141 144 149 147 159 174 164 163 262 294 310 312 302 300 295 296 296 299 302 307 309 309 308 307 307 311 315 314 313 316 320 320 320 318 318 318 320 321 318 310 314 332 350 347 348 354 357 358 356 349 351 348 344 334 334 336 340 335 338 337 333 328 324 324 277 170 137 134 136 137
129 132 129 130 121 124 136 142 141 146 143 141 137 141 145 145 149 145 158 168 161 165 157 287 312 312 301 294 297 292 292 297 301 307 310 311 307 306 307 306 306 308 313 313 314 316 316 313 313 314 312 313 314 318 319 320 345 351 351 353 356 359 1 2 2 358 353 346 351 351 344 346 346 343 341 340 338 335 335 349 349 69 127 123 138
132 127 123 124 122 124 116 119 123 118 128 131 135 138 144 144 145 163 158 151 139 131 112 287 306 309 315 302 304 300 305 307 315 313 311 307 307 308 308 309 308 310 312 311 311 313 313 315 309 305 311 313 319 317 321 324 348 352 353 352 356 360 2 3 3 3 1 354 349 350 355 350 345 349 348 345 342 344 353 355 351 348 357 143 148
124 118 116 123 123 123 126 126 127 130 130 140 148 148 150 148 153 159 155 157 143 125 247 289 318 311 303 289 299 304 308 310 309 307 303 303 303 309 311 314 312 314 309 307 308 310 314 312 315 313 316 315 317 323 326 325 348 350 348 354 359 1 4 5 5 4 2 359 352 358 350 352 354 357 -0 359 355 357 355 353 357 -0 356 344 348